This is the latest recevied weather packets stored in our database for station/object EUGENE. If no packets are shown the sender has not sent any weather packets the latest 10 day(s).
| Time | Temp. | Humidity | Pressure | Rain* | Wind** | Luminosity | Snow |
|---|---|---|---|---|---|---|---|
| 1777709526 | 10.56° C | 84% | 1016.8 hPa | 0 mm | - | - | - |
| 1777708626 | 11.11° C | 84% | 1016.9 hPa | 0 mm | - | - | - |
| 1777707726 | 11.11° C | 83% | 1017.1 hPa | 0 mm | - | - | - |
| 1777706826 | 11.11° C | 82% | 1017.1 hPa | 0 mm | - | - | - |
| 1777705926 | 11.67° C | 82% | 1017.1 hPa | 0 mm | - | - | - |
| 1777705025 | 11.67° C | 82% | 1017.1 hPa | 0 mm | - | - | - |
| 1777704126 | 11.67° C | 82% | 1017.1 hPa | 0 mm | - | - | - |
| 1777703226 | 11.67° C | 82% | 1017.2 hPa | 0 mm | - | - | - |
| 1777702326 | 12.22° C | 81% | 1017.2 hPa | 0 mm | - | - | - |
| 1777701425 | 12.22° C | 80% | 1017.1 hPa | 0 mm | - | - | - |
| 1777700526 | 12.22° C | 79% | 1016.9 hPa | 0 mm | - | - | - |
| 1777699625 | 12.78° C | 78% | 1016.8 hPa | 0 mm | - | - | - |
| 1777698725 | 13.33° C | 76% | 1016.7 hPa | 0 mm | - | - | - |
| 1777697825 | 13.89° C | 74% | 1016.7 hPa | 0 mm | - | - | - |
| 1777696926 | 13.89° C | 73% | 1016.4 hPa | 0 mm | - | - | - |
| 1777696025 | 14.44° C | 72% | 1016.3 hPa | 0 mm | - | - | - |
| 1777695126 | 14.44° C | 71% | 1016.2 hPa | 0 mm | - | - | - |
| 1777694225 | 15° C | 75% | 1016 hPa | 0 mm | - | - | - |
| 1777693326 | 16.11° C | 73% | 1015.8 hPa | 0 mm | - | - | - |
| 1777692425 | 16.67° C | 71% | 1015.4 hPa | 0 mm | - | - | - |
| 1777691525 | 17.22° C | 68% | 1015.3 hPa | 0 mm | - | - | - |
| 1777690644 | 17.22° C | 66% | 1015 hPa | 0 mm | - | - | - |
| 1777689725 | 17.78° C | 66% | 1015 hPa | 0 mm | - | - | - |
| 1777688826 | 18.33° C | 63% | 1014.7 hPa | 0 mm | - | - | - |
| 1777687925 | 19.44° C | 67% | 1014.6 hPa | 0 mm | - | - | - |
* Rain latest hour (hover to see other rain measurements)
** Current wind speed in m/s (hover to see current wind gust speed)